TimeCDT,TemperatureF,Dew PointF,Humidity,Sea Level PressureIn,VisibilityMPH,Wind Direction,Wind SpeedMPH,Gust SpeedMPH,PrecipitationIn,Events,Conditions,WindDirDegrees,DateUTC
12:13 AM,41.0,39.2,93,29.91,0.5,ENE,8.1,-,N/A,Fog,Fog,70,2013-05-19 05:13:00
12:33 AM,41.0,39.2,93,29.91,0.5,NE,6.9,-,N/A,Fog,Fog,50,2013-05-19 05:33:00
12:54 AM,39.2,39.2,100,29.91,0.5,North,4.6,-,N/A,Fog,Fog,10,2013-05-19 05:54:00
1:13 AM,39.2,37.4,93,29.90,0.5,NNE,4.6,-,N/A,Fog,Fog,20,2013-05-19 06:13:00
1:33 AM,39.2,37.4,93,29.90,0.5,NNE,5.8,-,N/A,Fog,Fog,30,2013-05-19 06:33:00
1:53 AM,39.2,37.4,93,29.89,0.5,NNE,6.9,-,N/A,Fog,Fog,30,2013-05-19 06:53:00
2:14 AM,39.2,37.4,93,29.89,1.0,NNE,4.6,-,N/A,Thunderstorm,Overcast,20,2013-05-19 07:14:00
2:33 AM,39.2,37.4,93,29.89,0.8,NNE,5.8,-,N/A,,Overcast,30,2013-05-19 07:33:00
2:53 AM,39.2,37.4,93,29.89,0.5,North,6.9,-,N/A,Fog,Fog,10,2013-05-19 07:53:00
3:14 AM,39.2,37.4,93,29.90,0.5,NNE,5.8,-,N/A,Fog,Fog,20,2013-05-19 08:14:00
3:33 AM,39.2,37.4,93,29.91,0.2,North,6.9,-,N/A,Fog,Fog,10,2013-05-19 08:33:00
3:53 AM,39.2,37.4,93,29.90,0.5,NNE,8.1,-,N/A,Fog,Fog,20,2013-05-19 08:53:00
4:14 AM,39.2,37.4,93,29.91,0.2,NNE,6.9,-,N/A,Fog,Fog,20,2013-05-19 09:14:00
4:33 AM,39.2,37.4,93,29.90,0.2,NNE,6.9,-,N/A,Fog,Fog,30,2013-05-19 09:33:00
4:53 AM,39.2,39.2,100,29.89,0.2,NNE,5.8,-,N/A,,Overcast,20,2013-05-19 09:53:00
5:14 AM,39.2,37.4,93,29.88,0.2,North,6.9,-,N/A,,Overcast,10,2013-05-19 10:14:00
5:33 AM,39.2,37.4,93,29.87,0.2,NNE,8.1,-,N/A,,Overcast,20,2013-05-19 10:33:00
5:53 AM,39.2,37.4,93,29.86,0.2,NNE,10.4,-,N/A,,Overcast,30,2013-05-19 10:53:00
6:14 AM,39.2,39.2,100,29.85,0.2,NE,9.2,-,N/A,,Overcast,40,2013-05-19 11:14:00
6:33 AM,41.0,39.2,93,29.85,0.2,NE,8.1,-,N/A,,Overcast,50,2013-05-19 11:33:00
7:14 AM,41.0,39.2,93,29.88,0.2,ENE,8.1,-,N/A,,Overcast,70,2013-05-19 12:14:00
7:33 AM,42.8,39.2,87,29.88,0.2,ENE,9.2,-,N/A,,Overcast,60,2013-05-19 12:33:00
7:54 AM,41.0,39.2,93,29.88,0.2,ENE,10.4,-,N/A,,Overcast,60,2013-05-19 12:54:00
8:14 AM,41.0,39.2,93,29.88,0.2,ENE,10.4,-,N/A,,Overcast,60,2013-05-19 13:14:00
8:33 AM,41.0,39.2,93,29.89,0.2,ENE,10.4,-,N/A,,Overcast,60,2013-05-19 13:33:00
8:54 AM,41.0,39.2,93,29.88,1.0,ENE,10.4,-,N/A,Thunderstorm,Overcast,70,2013-05-19 13:54:00
9:14 AM,41.0,39.2,93,29.88,2.5,ENE,12.7,-,N/A,,Overcast,70,2013-05-19 14:14:00
9:54 AM,41.0,39.2,93,29.86,7.0,ENE,12.7,-,N/A,,Overcast,70,2013-05-19 14:54:00
10:13 AM,42.8,39.2,87,29.83,7.0,ENE,16.1,-,N/A,,Overcast,60,2013-05-19 15:13:00
10:33 AM,42.8,39.2,87,29.79,5.0,ENE,20.7,-,N/A,Thunderstorm,Overcast,60,2013-05-19 15:33:00
10:54 AM,42.8,39.2,87,29.77,5.0,ENE,18.4,-,N/A,,Overcast,60,2013-05-19 15:54:00
11:13 AM,42.8,41.0,93,29.82,10.0,East,16.1,-,N/A,,Overcast,80,2013-05-19 16:13:00
11:33 AM,42.8,42.8,100,29.83,10.0,East,16.1,-,N/A,,Overcast,80,2013-05-19 16:33:00
11:54 AM,42.8,41.0,93,29.83,10.0,ENE,13.8,-,N/A,,Overcast,70,2013-05-19 16:54:00
12:13 PM,42.8,41.0,93,29.83,7.0,ENE,13.8,-,N/A,,Overcast,60,2013-05-19 17:13:00
12:33 PM,44.6,42.8,93,29.81,7.0,ENE,19.6,-,N/A,,Overcast,60,2013-05-19 17:33:00
12:54 PM,44.6,42.8,93,29.81,7.0,ENE,18.4,-,N/A,,Overcast,60,2013-05-19 17:54:00
1:13 PM,44.6,42.8,93,29.80,5.0,ENE,21.9,26.5,N/A,,Overcast,60,2013-05-19 18:13:00
1:34 PM,44.6,42.8,93,29.81,7.0,ENE,20.7,-,N/A,,Overcast,70,2013-05-19 18:34:00
2:13 PM,42.8,42.8,100,29.82,5.0,ENE,19.6,-,N/A,,Overcast,60,2013-05-19 19:13:00
2:34 PM,44.6,42.8,93,29.82,5.0,ENE,21.9,-,N/A,,Overcast,60,2013-05-19 19:34:00
2:53 PM,44.6,42.8,93,29.82,7.0,ENE,21.9,-,N/A,,Overcast,60,2013-05-19 19:53:00
3:13 PM,44.6,42.8,93,29.82,10.0,NE,19.6,-,N/A,,Overcast,50,2013-05-19 20:13:00
3:33 PM,44.6,42.8,93,29.82,10.0,NE,23.0,-,N/A,,Overcast,50,2013-05-19 20:33:00
3:53 PM,42.8,42.8,100,29.82,10.0,ENE,23.0,-,N/A,,Overcast,60,2013-05-19 20:53:00
4:14 PM,42.8,41.0,93,29.82,10.0,NE,18.4,-,N/A,,Overcast,50,2013-05-19 21:14:00
4:33 PM,42.8,41.0,93,29.82,10.0,NE,18.4,-,N/A,,Overcast,50,2013-05-19 21:33:00
4:54 PM,42.8,41.0,93,29.82,10.0,NE,16.1,-,N/A,,Overcast,50,2013-05-19 21:54:00
5:13 PM,42.8,41.0,93,29.81,10.0,NE,16.1,-,N/A,,Overcast,50,2013-05-19 22:13:00
5:33 PM,42.8,41.0,93,29.80,10.0,NE,19.6,25.3,N/A,,Overcast,40,2013-05-19 22:33:00
5:53 PM,44.6,42.8,93,29.80,10.0,NE,24.2,-,N/A,,Overcast,40,2013-05-19 22:53:00
6:13 PM,44.6,42.8,93,29.80,10.0,NE,24.2,-,N/A,,Overcast,40,2013-05-19 23:13:00
6:34 PM,44.6,42.8,93,29.79,10.0,NE,26.5,-,N/A,,Overcast,40,2013-05-19 23:34:00
6:53 PM,44.6,42.8,93,29.77,10.0,NE,28.8,34.5,N/A,Rain,Light Rain,40,2013-05-19 23:53:00
7:14 PM,44.6,42.8,93,29.78,10.0,NE,24.2,-,N/A,,Scattered Clouds,50,2013-05-20 00:14:00
7:33 PM,44.6,42.8,93,29.76,10.0,NE,28.8,33.4,N/A,,Overcast,40,2013-05-20 00:33:00
7:53 PM,44.6,42.8,93,29.76,10.0,NE,28.8,38.0,N/A,,Overcast,40,2013-05-20 00:53:00
8:14 PM,44.6,42.8,93,29.83,5.0,ENE,23.0,-,N/A,Rain,Rain,70,2013-05-20 01:14:00
8:33 PM,44.6,42.8,93,29.79,4.0,NE,21.9,29.9,N/A,Rain,Rain,50,2013-05-20 01:33:00
8:53 PM,42.8,41.0,93,29.78,7.0,NE,18.4,-,N/A,Rain,Rain,50,2013-05-20 01:53:00
9:14 PM,42.8,41.0,93,29.77,10.0,NE,24.2,29.9,N/A,Rain,Light Rain,50,2013-05-20 02:14:00
9:33 PM,42.8,42.8,100,29.76,10.0,NE,28.8,33.4,N/A,,Light Drizzle,50,2013-05-20 02:33:00
9:53 PM,44.6,42.8,93,29.76,10.0,NE,29.9,34.5,N/A,,Overcast,50,2013-05-20 02:53:00
10:14 PM,44.6,42.8,93,29.76,10.0,NE,26.5,33.4,N/A,,Overcast,50,2013-05-20 03:14:00
10:33 PM,42.8,42.8,100,29.75,10.0,NE,23.0,-,N/A,,Overcast,50,2013-05-20 03:33:00
11:14 PM,42.8,42.8,100,29.74,10.0,NE,27.6,-,N/A,,Overcast,50,2013-05-20 04:14:00
11:33 PM,44.6,42.8,93,29.74,10.0,NE,29.9,34.5,N/A,,Overcast,50,2013-05-20 04:33:00
11:54 PM,44.6,42.8,93,29.75,7.0,NE,26.5,33.4,N/A,,Overcast,50,2013-05-20 04:54:00